Location: Hopewell Observatory
(38.8698°N, 77.6988°W)
Time: 17:38:11
(UTC-04:00)

SJ 16-02 - Pass Details

Date: 26 May 2018
Orbit: 607 x 616 km, 75.0° (Epoch: 21 August)

Event Time Altitude Azimuth Distance (km) Brightness Sun altitude
Rises 23:14:02 0° 331° (NNW) 2,893 6.2 -24.2°
Reaches altitude 10° 23:16:29 10° 321° (NW) 1,983 5.0 -24.4°
Maximum altitude 23:20:21 30° 260° (W) 1,104 2.7 -24.8°
Enters shadow 23:20:53 29° 246° (WSW) 1,126 2.7 -24.8°
